Terug naar catalogus

STARLINK-32798

ActiefCommunicatieVLEO
NORAD 63029·PAYLOAD·🇺🇸 United States

Gelanceerd Feb 18, 2025 vanaf Cape Canaveral Space Force Station

Loading…

Volgende Passages (komende 24 uur)

TLE

VersSource: CelesTrak SupGP

Epoch: Sep 14, 2026, 22:39 UTC

1 63029C 25034A   26257.94423611  .00006920  00000+0  20448-3 0  2570
2 63029  53.1579 109.3443 0001356  79.8262  70.2085 15.34383740    16

Volg STARLINK-32798 in realtime met AllMySat

Download on the App Store